Time,TemperatureF,DewpointF,PressureIn,WindDirection,WindDirectionDegrees,WindSpeedMPH,WindSpeedGustMPH,Humidity,HourlyPrecipIn,Conditions,Clouds,dailyrainin,SoftwareType,DateUTC
2013-08-07 00:00:00,72.5,72.0,30.02,SE,142,0.0,0.0,98,0.16,,,0.00,weatherlink.com 1.10,2013-08-07 04:00:00,
2013-08-07 00:17:00,72.3,72.0,30.01,SE,142,0.0,1.0,98,0.17,,,0.02,weatherlink.com 1.10,2013-08-07 04:17:00,
2013-08-07 00:31:00,72.2,72.0,30.01,SE,142,0.0,0.0,98,0.14,,,0.02,weatherlink.com 1.10,2013-08-07 04:31:00,
2013-08-07 00:46:00,72.1,72.0,30.01,SE,142,0.0,0.0,98,0.08,,,0.02,weatherlink.com 1.10,2013-08-07 04:46:00,
2013-08-07 01:01:00,72.1,72.0,30.01,SE,142,0.0,0.0,99,0.02,,,0.02,weatherlink.com 1.10,2013-08-07 05:01:00,
2013-08-07 01:16:00,72.1,72.0,30.02,SE,142,0.0,0.0,99,0.00,,,0.02,weatherlink.com 1.10,2013-08-07 05:16:00,
2013-08-07 01:31:00,72.1,72.0,30.01,SE,142,0.0,0.0,99,0.00,,,0.02,weatherlink.com 1.10,2013-08-07 05:31:00,
2013-08-07 01:46:00,72.2,72.0,30.01,SE,142,0.0,0.0,99,0.00,,,0.02,weatherlink.com 1.10,2013-08-07 05:46:00,
2013-08-07 02:01:00,72.2,72.0,30.01,SE,142,0.0,0.0,99,0.00,,,0.02,weatherlink.com 1.10,2013-08-07 06:01:00,
2013-08-07 02:16:00,72.2,72.0,30.01,SE,142,0.0,0.0,99,0.00,,,0.02,weatherlink.com 1.10,2013-08-07 06:16:00,
2013-08-07 02:31:00,72.2,72.0,30.01,SE,142,0.0,0.0,99,0.00,,,0.02,weatherlink.com 1.10,2013-08-07 06:31:00,
2013-08-07 02:46:00,72.2,72.0,30.01,SE,142,0.0,0.0,99,0.00,,,0.02,weatherlink.com 1.10,2013-08-07 06:46:00,
2013-08-07 03:01:00,72.1,72.0,30.00,SE,142,0.0,0.0,99,0.00,,,0.02,weatherlink.com 1.10,2013-08-07 07:01:00,
2013-08-07 03:16:00,72.1,72.0,30.00,SE,142,0.0,0.0,99,0.00,,,0.02,weatherlink.com 1.10,2013-08-07 07:16:00,
2013-08-07 03:31:00,72.1,72.0,30.00,SE,142,0.0,0.0,99,0.00,,,0.02,weatherlink.com 1.10,2013-08-07 07:31:00,
2013-08-07 03:46:00,72.0,72.0,30.00,South,188,0.0,2.0,99,0.00,,,0.02,weatherlink.com 1.10,2013-08-07 07:46:00,
2013-08-07 04:01:00,71.9,72.0,30.00,SE,124,1.0,3.0,99,0.00,,,0.02,weatherlink.com 1.10,2013-08-07 08:01:00,
2013-08-07 04:17:00,71.8,72.0,30.00,SSW,204,0.0,2.0,99,0.00,,,0.02,weatherlink.com 1.10,2013-08-07 08:17:00,
2013-08-07 04:31:00,71.8,72.0,30.00,SE,131,0.0,1.0,99,0.00,,,0.02,weatherlink.com 1.10,2013-08-07 08:31:00,
2013-08-07 04:46:00,71.7,71.0,30.00,SE,131,0.0,0.0,99,0.00,,,0.02,weatherlink.com 1.10,2013-08-07 08:46:00,
2013-08-07 05:01:00,71.6,71.0,30.00,SSW,201,0.0,2.0,99,0.00,,,0.02,weatherlink.com 1.10,2013-08-07 09:01:00,
2013-08-07 05:16:00,71.6,71.0,30.00,SE,131,0.0,2.0,99,0.00,,,0.02,weatherlink.com 1.10,2013-08-07 09:16:00,
2013-08-07 05:31:00,71.5,71.0,30.01,SSE,155,0.0,1.0,99,0.00,,,0.02,weatherlink.com 1.10,2013-08-07 09:31:00,
2013-08-07 05:46:00,71.4,71.0,30.01,SSE,148,1.0,2.0,99,0.00,,,0.02,weatherlink.com 1.10,2013-08-07 09:46:00,
2013-08-07 06:01:00,71.4,71.0,30.01,SSE,148,0.0,0.0,99,0.00,,,0.02,weatherlink.com 1.10,2013-08-07 10:01:00,
2013-08-07 06:17:00,71.2,71.0,30.01,SE,144,0.0,1.0,99,0.00,,,0.02,weatherlink.com 1.10,2013-08-07 10:17:00,
2013-08-07 06:31:00,71.2,71.0,30.01,SE,144,0.0,1.0,99,0.00,,,0.02,weatherlink.com 1.10,2013-08-07 10:31:00,
2013-08-07 06:46:00,71.1,71.0,30.01,SE,144,0.0,1.0,99,0.01,,,0.03,weatherlink.com 1.10,2013-08-07 10:46:00,
2013-08-07 07:01:00,71.0,71.0,30.02,SSE,157,0.0,1.0,99,0.01,,,0.03,weatherlink.com 1.10,2013-08-07 11:01:00,
2013-08-07 07:16:00,71.0,71.0,30.02,East,80,0.0,2.0,99,0.01,,,0.03,weatherlink.com 1.10,2013-08-07 11:16:00,
2013-08-07 07:31:00,71.0,71.0,30.02,East,80,1.0,2.0,99,0.01,,,0.03,weatherlink.com 1.10,2013-08-07 11:31:00,
2013-08-07 07:46:00,71.0,71.0,30.02,East,80,0.0,1.0,99,0.00,,,0.03,weatherlink.com 1.10,2013-08-07 11:46:00,
2013-08-07 08:01:00,71.0,71.0,30.02,South,171,1.0,2.0,99,0.00,,,0.03,weatherlink.com 1.10,2013-08-07 12:01:00,
2013-08-07 08:16:00,71.2,71.0,30.03,South,191,0.0,3.0,100,0.00,,,0.03,weatherlink.com 1.10,2013-08-07 12:16:00,
2013-08-07 08:31:00,71.2,71.0,30.02,South,182,0.0,3.0,100,0.00,,,0.03,weatherlink.com 1.10,2013-08-07 12:31:00,
2013-08-07 08:46:00,71.3,71.0,30.03,South,180,2.0,4.0,100,0.00,,,0.03,weatherlink.com 1.10,2013-08-07 12:46:00,
2013-08-07 09:01:00,71.4,71.0,30.03,South,171,2.0,3.0,100,0.00,,,0.03,weatherlink.com 1.10,2013-08-07 13:01:00,
2013-08-07 09:16:00,71.5,72.0,30.03,SSW,194,2.0,3.0,100,0.00,,,0.03,weatherlink.com 1.10,2013-08-07 13:16:00,
2013-08-07 09:31:00,71.7,72.0,30.03,South,181,0.0,3.0,100,0.00,,,0.03,weatherlink.com 1.10,2013-08-07 13:31:00,
2013-08-07 09:46:00,71.8,72.0,30.03,SSW,193,2.0,2.0,100,0.00,,,0.03,weatherlink.com 1.10,2013-08-07 13:46:00,
2013-08-07 10:01:00,71.9,72.0,30.03,North,355,1.0,4.0,100,0.01,,,0.04,weatherlink.com 1.10,2013-08-07 14:01:00,
2013-08-07 10:16:00,72.0,72.0,30.04,NW,310,0.0,2.0,100,0.01,,,0.04,weatherlink.com 1.10,2013-08-07 14:16:00,
2013-08-07 10:31:00,72.1,72.0,30.04,SSW,211,0.0,2.0,100,0.02,,,0.05,weatherlink.com 1.10,2013-08-07 14:31:00,
2013-08-07 10:46:00,72.2,72.0,30.05,SSW,211,0.0,1.0,100,0.03,,,0.06,weatherlink.com 1.10,2013-08-07 14:46:00,
2013-08-07 11:01:00,72.5,73.0,30.05,SSW,200,1.0,2.0,100,0.02,,,0.06,weatherlink.com 1.10,2013-08-07 15:01:00,
2013-08-07 11:16:00,72.9,73.0,30.05,SSW,200,1.0,2.0,100,0.03,,,0.07,weatherlink.com 1.10,2013-08-07 15:16:00,
2013-08-07 11:31:00,73.1,73.0,30.05,SW,222,0.0,3.0,100,0.03,,,0.08,weatherlink.com 1.10,2013-08-07 15:31:00,
2013-08-07 11:46:00,73.5,73.0,30.05,South,191,0.0,2.0,99,0.02,,,0.08,weatherlink.com 1.10,2013-08-07 15:46:00,
2013-08-07 12:02:00,73.7,73.0,30.05,South,180,1.0,3.0,99,0.03,,,0.09,weatherlink.com 1.10,2013-08-07 16:02:00,
2013-08-07 12:17:00,73.7,73.0,30.05,South,169,0.0,2.0,99,0.02,,,0.09,weatherlink.com 1.10,2013-08-07 16:17:00,
2013-08-07 12:32:00,73.5,73.0,30.05,WNW,294,0.0,1.0,99,0.02,,,0.10,weatherlink.com 1.10,2013-08-07 16:32:00,
2013-08-07 12:47:00,73.7,73.0,30.05,WNW,294,0.0,0.0,99,0.05,,,0.13,weatherlink.com 1.10,2013-08-07 16:47:00,
2013-08-07 13:02:00,74.0,74.0,30.05,WNW,294,0.0,1.0,100,0.07,,,0.16,weatherlink.com 1.10,2013-08-07 17:02:00,
2013-08-07 13:17:00,74.0,74.0,30.05,SSE,155,1.0,2.0,99,0.10,,,0.19,weatherlink.com 1.10,2013-08-07 17:17:00,
2013-08-07 13:32:00,74.4,74.0,30.05,SSE,155,0.0,0.0,99,0.11,,,0.21,weatherlink.com 1.10,2013-08-07 17:32:00,
2013-08-07 13:47:00,74.7,74.0,30.04,SW,215,1.0,2.0,99,0.11,,,0.24,weatherlink.com 1.10,2013-08-07 17:47:00,
2013-08-07 14:02:00,74.8,74.0,30.04,SSW,205,0.0,1.0,98,0.10,,,0.26,weatherlink.com 1.10,2013-08-07 18:02:00,
2013-08-07 14:17:00,74.9,74.0,30.04,SSW,205,0.0,1.0,98,0.09,,,0.28,weatherlink.com 1.10,2013-08-07 18:17:00,
2013-08-07 14:32:00,74.8,74.0,30.04,South,169,2.0,5.0,97,0.11,,,0.32,weatherlink.com 1.10,2013-08-07 18:32:00,
2013-08-07 14:47:00,74.1,73.0,30.03,SSE,161,0.0,2.0,96,0.10,,,0.34,weatherlink.com 1.10,2013-08-07 18:47:00,
2013-08-07 15:02:00,74.1,73.0,30.02,SSE,166,0.0,1.0,97,0.08,,,0.34,weatherlink.com 1.10,2013-08-07 19:02:00,
2013-08-07 15:17:00,75.0,74.0,30.02,SSE,166,0.0,1.0,98,0.06,,,0.34,weatherlink.com 1.10,2013-08-07 19:17:00,
2013-08-07 15:32:00,75.5,74.0,30.01,SSE,166,0.0,1.0,94,0.02,,,0.34,weatherlink.com 1.10,2013-08-07 19:32:00,
2013-08-07 15:47:00,76.0,75.0,30.01,SSE,166,0.0,1.0,95,0.00,,,0.34,weatherlink.com 1.10,2013-08-07 19:47:00,
2013-08-07 16:02:00,76.4,75.0,30.01,SSE,155,0.0,0.0,96,0.00,,,0.34,weatherlink.com 1.10,2013-08-07 20:02:00,
2013-08-07 16:17:00,76.4,75.0,30.01,SSE,155,0.0,0.0,95,0.00,,,0.34,weatherlink.com 1.10,2013-08-07 20:17:00,
2013-08-07 16:32:00,76.4,75.0,30.00,SSE,155,0.0,1.0,96,0.03,,,0.37,weatherlink.com 1.10,2013-08-07 20:32:00,
2013-08-07 16:47:00,75.8,75.0,30.00,SSE,155,0.0,1.0,97,0.17,,,0.51,weatherlink.com 1.10,2013-08-07 20:47:00,
2013-08-07 17:02:00,75.4,75.0,30.00,SSE,155,0.0,1.0,97,0.20,,,0.54,weatherlink.com 1.10,2013-08-07 21:02:00,
2013-08-07 17:17:00,75.7,75.0,30.00,SSE,155,0.0,0.0,99,0.20,,,0.54,weatherlink.com 1.10,2013-08-07 21:17:00,
2013-08-07 17:32:00,76.4,76.0,30.00,SSE,155,0.0,1.0,98,0.16,,,0.54,weatherlink.com 1.10,2013-08-07 21:32:00,
2013-08-07 17:47:00,76.4,76.0,30.00,SSE,155,0.0,1.0,98,0.03,,,0.54,weatherlink.com 1.10,2013-08-07 21:47:00,
2013-08-07 18:02:00,76.5,76.0,30.00,SSE,155,0.0,0.0,97,0.00,,,0.54,weatherlink.com 1.10,2013-08-07 22:02:00,
2013-08-07 18:17:00,75.3,73.0,30.00,South,188,1.0,3.0,93,0.05,,,0.59,weatherlink.com 1.10,2013-08-07 22:17:00,
2013-08-07 18:32:00,72.5,71.0,30.00,ESE,118,0.0,3.0,95,0.35,,,0.89,weatherlink.com 1.10,2013-08-07 22:32:00,
2013-08-07 18:47:00,71.5,71.0,30.00,ESE,118,0.0,2.0,97,0.52,,,1.06,weatherlink.com 1.10,2013-08-07 22:47:00,
2013-08-07 19:02:00,71.3,71.0,30.00,ESE,118,0.0,2.0,98,0.60,,,1.14,weatherlink.com 1.10,2013-08-07 23:02:00,
2013-08-07 19:17:00,71.2,71.0,30.00,ESE,118,0.0,1.0,99,0.55,,,1.17,weatherlink.com 1.10,2013-08-07 23:17:00,
2013-08-07 19:32:00,71.5,71.0,30.00,ESE,118,0.0,0.0,99,0.27,,,1.19,weatherlink.com 1.10,2013-08-07 23:32:00,
2013-08-07 19:47:00,71.7,71.0,30.00,ESE,118,0.0,0.0,99,0.16,,,1.22,weatherlink.com 1.10,2013-08-07 23:47:00,
2013-08-07 20:02:00,71.8,72.0,30.01,ESE,118,0.0,1.0,99,0.09,,,1.23,weatherlink.com 1.10,2013-08-08 00:02:00,
2013-08-07 20:17:00,71.7,71.0,30.01,ESE,118,0.0,0.0,99,0.06,,,1.23,weatherlink.com 1.10,2013-08-08 00:17:00,
2013-08-07 20:32:00,71.7,71.0,30.01,ESE,118,0.0,0.0,99,0.04,,,1.23,weatherlink.com 1.10,2013-08-08 00:32:00,
2013-08-07 20:47:00,71.7,72.0,30.00,ESE,118,0.0,0.0,100,0.01,,,1.23,weatherlink.com 1.10,2013-08-08 00:47:00,
2013-08-07 21:02:00,71.7,72.0,30.00,ESE,118,0.0,0.0,100,0.00,,,1.23,weatherlink.com 1.10,2013-08-08 01:02:00,
2013-08-07 21:17:00,71.8,72.0,30.01,ESE,118,0.0,0.0,100,0.00,,,1.23,weatherlink.com 1.10,2013-08-08 01:17:00,
2013-08-07 21:32:00,71.8,72.0,30.01,ESE,118,0.0,0.0,100,0.00,,,1.23,weatherlink.com 1.10,2013-08-08 01:32:00,
2013-08-07 21:47:00,71.9,72.0,30.02,ESE,118,0.0,0.0,100,0.00,,,1.23,weatherlink.com 1.10,2013-08-08 01:47:00,
2013-08-07 22:02:00,71.9,72.0,30.02,ESE,118,0.0,0.0,100,0.00,,,1.23,weatherlink.com 1.10,2013-08-08 02:02:00,
2013-08-07 22:17:00,71.9,72.0,30.03,ESE,118,0.0,0.0,100,0.00,,,1.23,weatherlink.com 1.10,2013-08-08 02:17:00,
2013-08-07 22:32:00,71.9,72.0,30.03,ESE,118,0.0,0.0,100,0.00,,,1.23,weatherlink.com 1.10,2013-08-08 02:32:00,
2013-08-07 22:47:00,71.9,72.0,30.03,ESE,118,0.0,0.0,100,0.00,,,1.23,weatherlink.com 1.10,2013-08-08 02:47:00,
2013-08-07 23:02:00,71.9,72.0,30.03,ESE,118,0.0,0.0,100,0.00,,,1.23,weatherlink.com 1.10,2013-08-08 03:02:00,
2013-08-07 23:17:00,71.9,72.0,30.03,ESE,118,0.0,0.0,100,0.00,,,1.23,weatherlink.com 1.10,2013-08-08 03:17:00,
2013-08-07 23:32:00,71.9,72.0,30.03,ESE,118,0.0,0.0,100,0.00,,,1.23,weatherlink.com 1.10,2013-08-08 03:32:00,
2013-08-07 23:47:00,71.9,72.0,30.02,ESE,118,0.0,0.0,100,0.00,,,1.23,weatherlink.com 1.10,2013-08-08 03:47:00,